This is the latest recevied weather packets stored in our database for station/object EB5AGF-13. If no packets are shown the sender has not sent any weather packets the latest 10 day(s).
| Time | Temp. | Humidity | Pressure | Rain* | Wind** | Luminosity | Snow |
|---|---|---|---|---|---|---|---|
| 1777908931 | 21.11° C | 73% | 1007.2 hPa | 0 mm | 1.79 m/s, 238° | 326 W/m² | - |
| 1777908631 | 21.11° C | 73% | 1007.2 hPa | 0 mm | 3.13 m/s, 204° | 334 W/m² | - |
| 1777908331 | 21.11° C | 74% | 1007.3 hPa | 0 mm | 2.68 m/s, 164° | 346 W/m² | - |
| 1777908032 | 21.11° C | 74% | 1007.4 hPa | 0 mm | 2.68 m/s, 266° | 359 W/m² | - |
| 1777907732 | 21.11° C | 73% | 1007.5 hPa | 0 mm | 4.47 m/s, 212° | 370 W/m² | - |
| 1777907431 | 21.11° C | 73% | 1007.3 hPa | 0 mm | 1.34 m/s, 290° | 386 W/m² | - |
| 1777907131 | 21.11° C | 73% | 1007.7 hPa | 0 mm | 2.68 m/s, 205° | 392 W/m² | - |
| 1777906831 | 21.67° C | 71% | 1007.7 hPa | 0 mm | 2.68 m/s, 2° | 408 W/m² | - |
| 1777906531 | 21.67° C | 71% | 1007.7 hPa | 0 mm | 1.34 m/s, 239° | 420 W/m² | - |
| 1777906231 | 21.67° C | 70% | 1007.5 hPa | 0 mm | 6.26 m/s, 168° | 423 W/m² | - |
| 1777905931 | 22.22° C | 69% | 1007.9 hPa | 0 mm | 4.02 m/s, 237° | 157 W/m² | - |
| 1777905632 | 22.22° C | 68% | 1007.6 hPa | 0 mm | 3.58 m/s, 250° | 60 W/m² | - |
| 1777905331 | 22.22° C | 68% | 1007.7 hPa | 0 mm | 0.45 m/s, 171° | 57 W/m² | - |
| 1777905031 | 22.22° C | 66% | 1007.8 hPa | 0 mm | 4.02 m/s, 206° | 56 W/m² | - |
| 1777904731 | 22.22° C | 66% | 1007.8 hPa | 0 mm | 1.34 m/s, 196° | 56 W/m² | - |
| 1777904431 | 22.22° C | 67% | 1007.8 hPa | 0 mm | 3.13 m/s, 184° | 55 W/m² | - |
| 1777904132 | 22.22° C | 65% | 1008 hPa | 0 mm | 4.02 m/s, 208° | 55 W/m² | - |
| 1777903831 | 22.22° C | 66% | 1008 hPa | 0 mm | 2.24 m/s, 234° | 74 W/m² | - |
| 1777903529 | 22.22° C | 66% | 1008 hPa | 0 mm | 2.68 m/s, 228° | 505 W/m² | - |
| 1777903224 | 22.22° C | 66% | 1008.2 hPa | 0 mm | 2.24 m/s, 199° | 549 W/m² | - |
| 1777902921 | 22.22° C | 66% | 1008.3 hPa | 0 mm | 2.68 m/s, 230° | 557 W/m² | - |
| 1777902616 | 22.78° C | 66% | 1008.2 hPa | 0 mm | 2.24 m/s, 198° | 568 W/m² | - |
| 1777902313 | 22.78° C | 64% | 1008.2 hPa | 0 mm | 3.58 m/s, 171° | 577 W/m² | - |
| 1777902009 | 21.67° C | 69% | 1008.5 hPa | 0 mm | 1.34 m/s, 248° | 589 W/m² | - |
| 1777901705 | 22.22° C | 70% | 1008.3 hPa | 0 mm | 2.68 m/s, 191° | 595 W/m² | - |
* Rain latest hour (hover to see other rain measurements)
** Current wind speed in m/s (hover to see current wind gust speed)